Location: Eppenbrunn
(49.1158°N, 7.5601°E)
Time: 18:41:06
(UTC+00:00)

Meteor 2-17 Rocket - Pass Details

Date: 09 April 2020
Orbit: 935 x 956 km, 82.5° (Epoch: 02 June)

Event Time Altitude Azimuth Distance (km) Brightness Sun altitude
Rises 18:57:34 0° 350° (N) 3,644 8.0 -7.7°
Reaches altitude 10° 19:00:05 10° 353° (N) 2,696 7.2 -8.1°
Maximum altitude 19:06:16 76° 79° (E) 989 4.5 -9.0°
Drops below altitude 10° 19:12:25 10° 165° (SSE) 2,680 6.4 -9.9°
Sets 19:14:54 0° 167° (SSE) 3,621 7.1 -10.3°
